Meteo pe oră la Dzialy

Astăzi, 1 Octombrie, Joi

Timp Temperatura Precipitaţii Vânt Presiune Umiditate
00:00 +13°C° 0.3 mm 4 m/s 750 mmHg 88%
01:00 +13°C° 0 mm 4 m/s 750 mmHg 95%
02:00 +13°C° 0.1 mm 4 m/s 750 mmHg 94%
03:00 +13°C° 0.1 mm 3 m/s 749 mmHg 93%
04:00 +13°C° 0.1 mm 3 m/s 749 mmHg 92%
05:00 +13°C° 0 mm 3 m/s 748 mmHg 91%
06:00 +13°C° 0 mm 3 m/s 748 mmHg 90%
07:00 +13°C° 0 mm 3 m/s 748 mmHg 90%
08:00 +13°C° 0 mm 3 m/s 748 mmHg 84%
09:00 +14°C° 0 mm 3 m/s 748 mmHg 78%
10:00 +16°C° 0 mm 3 m/s 747 mmHg 72%
11:00 +14°C° 0 mm 3 m/s 747 mmHg 73%
12:00 +14°C° 0 mm 3 m/s 747 mmHg 75%
13:00 +14°C° 0 mm 3 m/s 747 mmHg 76%
14:00 +14°C° 0 mm 3 m/s 746 mmHg 77%
15:00 +13°C° 0 mm 3 m/s 746 mmHg 78%
16:00 +13°C° 0 mm 3 m/s 746 mmHg 80%
17:00 +13°C° 0 mm 3 m/s 746 mmHg 81%
18:00 +14°C° 0 mm 2 m/s 746 mmHg 82%
19:00 +14°C° 0 mm 2 m/s 746 mmHg 83%
20:00 +14°C° 0 mm 2 m/s 746 mmHg 84%
21:00 +13°C° 0 mm 1 m/s 746 mmHg 84%
22:00 +13°C° 0 mm 1 m/s 746 mmHg 85%
23:00 +13°C° 0 mm 2 m/s 746 mmHg 86%

Mâine, 2 Octombrie, Vineri

Timp Temperatura Precipitaţii Vânt Presiune Umiditate
00:00 +13°C° 0 mm 2 m/s 746 mmHg 86%
01:00 +13°C° 0 mm 2 m/s 746 mmHg 87%
02:00 +12°C° 0 mm 2 m/s 746 mmHg 89%
03:00 +11°C° 0 mm 3 m/s 745 mmHg 92%
04:00 +11°C° 0 mm 3 m/s 745 mmHg 94%
05:00 +11°C° 0 mm 3 m/s 745 mmHg 93%
06:00 +11°C° 0 mm 3 m/s 745 mmHg 93%
07:00 +12°C° 0 mm 3 m/s 745 mmHg 92%
08:00 +13°C° 0 mm 3 m/s 746 mmHg 87%
09:00 +14°C° 0 mm 4 m/s 746 mmHg 83%
10:00 +15°C° 0 mm 4 m/s 746 mmHg 78%
11:00 +15°C° 0.1 mm 4 m/s 746 mmHg 76%
12:00 +15°C° 0.1 mm 4 m/s 746 mmHg 74%
13:00 +17°C° 0.1 mm 4 m/s 746 mmHg 72%
14:00 +17°C° 0.1 mm 4 m/s 746 mmHg 72%
15:00 +17°C° 0.1 mm 4 m/s 746 mmHg 73%
16:00 +17°C° 0.1 mm 4 m/s 745 mmHg 73%
17:00 +16°C° 0 mm 3 m/s 746 mmHg 78%
18:00 +14°C° 0 mm 3 m/s 746 mmHg 83%
19:00 +13°C° 0 mm 3 m/s 746 mmHg 88%
20:00 +13°C° 0 mm 4 m/s 745 mmHg 88%
21:00 +13°C° 0 mm 4 m/s 745 mmHg 88%
22:00 +13°C° 0 mm 5 m/s 745 mmHg 88%
23:00 +13°C° 0 mm 5 m/s 745 mmHg 88%

Poimâine, 3 Octombrie, Sâmbătă

Timp Temperatura Precipitaţii Vânt Presiune Umiditate
00:00 +13°C° 0 mm 6 m/s 744 mmHg 88%
01:00 +13°C° 0 mm 6 m/s 744 mmHg 88%
02:00 +14°C° 0 mm 7 m/s 743 mmHg 85%
03:00 +14°C° 0 mm 7 m/s 743 mmHg 82%
04:00 +15°C° 0 mm 8 m/s 742 mmHg 80%
05:00 +15°C° 0 mm 7 m/s 742 mmHg 80%
06:00 +15°C° 0 mm 7 m/s 742 mmHg 80%
07:00 +15°C° 0 mm 7 m/s 741 mmHg 80%
08:00 +16°C° 0 mm 7 m/s 741 mmHg 72%
09:00 +18°C° 0 mm 8 m/s 741 mmHg 65%
10:00 +21°C° 0 mm 8 m/s 741 mmHg 57%
11:00 +22°C° 0 mm 8 m/s 741 mmHg 54%
12:00 +24°C° 0 mm 9 m/s 740 mmHg 50%
13:00 +26°C° 0 mm 9 m/s 740 mmHg 46%
14:00 +26°C° 0 mm 8 m/s 740 mmHg 49%
15:00 +24°C° 0 mm 7 m/s 740 mmHg 52%
16:00 +23°C° 0 mm 6 m/s 740 mmHg 56%
17:00 +23°C° 0 mm 6 m/s 740 mmHg 57%
18:00 +22°C° 0 mm 7 m/s 740 mmHg 59%
19:00 +21°C° 0 mm 7 m/s 740 mmHg 60%
20:00 +21°C° 0 mm 7 m/s 740 mmHg 61%
21:00 +21°C° 0 mm 7 m/s 740 mmHg 61%
22:00 +20°C° 0 mm 6 m/s 740 mmHg 62%
23:00 +20°C° 0 mm 7 m/s 739 mmHg 61%

4 Octombrie, Duminică

Timp Temperatura Precipitaţii Vânt Presiune Umiditate
00:00 +21°C° 0 mm 7 m/s 739 mmHg 60%
01:00 +21°C° 0 mm 7 m/s 739 mmHg 59%
02:00 +21°C° 0 mm 7 m/s 739 mmHg 60%
03:00 +21°C° 0 mm 7 m/s 740 mmHg 60%
04:00 +21°C° 0 mm 7 m/s 740 mmHg 61%
05:00 +20°C° 0 mm 6 m/s 740 mmHg 64%
06:00 +19°C° 0 mm 5 m/s 741 mmHg 68%
07:00 +19°C° 0 mm 4 m/s 741 mmHg 72%
08:00 +19°C° 0.1 mm 5 m/s 742 mmHg 68%
09:00 +20°C° 0.1 mm 6 m/s 742 mmHg 65%
10:00 +20°C° 0.1 mm 7 m/s 743 mmHg 62%
11:00 +21°C° 0 mm 6 m/s 744 mmHg 61%
12:00 +21°C° 0 mm 6 m/s 744 mmHg 59%
13:00 +21°C° 0 mm 5 m/s 745 mmHg 58%
14:00 +21°C° 0 mm 4 m/s 745 mmHg 59%
15:00 +21°C° 0 mm 4 m/s 745 mmHg 60%
16:00 +21°C° 0 mm 3 m/s 746 mmHg 61%
17:00 +20°C° 0 mm 3 m/s 746 mmHg 64%
18:00 +18°C° 0 mm 2 m/s 746 mmHg 68%
19:00 +17°C° 0 mm 2 m/s 746 mmHg 72%
20:00 +17°C° 0 mm 3 m/s 747 mmHg 71%
21:00 +17°C° 0 mm 3 m/s 747 mmHg 70%
22:00 +17°C° 0 mm 4 m/s 747 mmHg 69%
23:00 +15°C° 0 mm 4 m/s 747 mmHg 69%

5 Octombrie, Luni

Timp Temperatura Precipitaţii Vânt Presiune Umiditate
00:00 +15°C° 0 mm 4 m/s 746 mmHg 69%
01:00 +15°C° 0 mm 4 m/s 746 mmHg 70%
02:00 +15°C° 0 mm 4 m/s 746 mmHg 70%
03:00 +14°C° 0 mm 4 m/s 746 mmHg 71%
04:00 +14°C° 0 mm 5 m/s 745 mmHg 71%
05:00 +14°C° 0 mm 5 m/s 745 mmHg 71%
06:00 +14°C° 0 mm 4 m/s 745 mmHg 71%
07:00 +14°C° 0 mm 4 m/s 745 mmHg 71%
08:00 +16°C° 0.3 mm 5 m/s 744 mmHg 68%
09:00 +19°C° 0.3 mm 6 m/s 744 mmHg 65%
10:00 +20°C° 0.3 mm 6 m/s 744 mmHg 62%
11:00 +21°C° 0 mm 7 m/s 744 mmHg 57%
12:00 +22°C° 0 mm 7 m/s 744 mmHg 53%
13:00 +22°C° 0 mm 8 m/s 744 mmHg 48%
14:00 +22°C° 0 mm 7 m/s 744 mmHg 50%
15:00 +21°C° 0 mm 7 m/s 745 mmHg 53%
16:00 +21°C° 0 mm 6 m/s 745 mmHg 56%
17:00 +19°C° 0 mm 6 m/s 745 mmHg 60%
18:00 +17°C° 0 mm 5 m/s 746 mmHg 65%
19:00 +15°C° 0 mm 5 m/s 746 mmHg 70%
20:00 +14°C° 0 mm 5 m/s 747 mmHg 74%
21:00 +14°C° 0 mm 5 m/s 748 mmHg 77%
22:00 +13°C° 0 mm 5 m/s 748 mmHg 81%
23:00 +12°C° 0 mm 4 m/s 749 mmHg 82%

6 Octombrie, Marţi

Timp Temperatura Precipitaţii Vânt Presiune Umiditate
00:00 +12°C° 0 mm 3 m/s 749 mmHg 84%
01:00 +11°C° 0 mm 3 m/s 749 mmHg 85%
02:00 +11°C° 0 mm 3 m/s 750 mmHg 85%
03:00 +11°C° 0 mm 3 m/s 750 mmHg 85%
04:00 +11°C° 0 mm 3 m/s 750 mmHg 85%
05:00 +11°C° 0 mm 3 m/s 750 mmHg 82%
06:00 +12°C° 0 mm 2 m/s 750 mmHg 79%
07:00 +12°C° 0 mm 2 m/s 750 mmHg 76%
08:00 +13°C° 0 mm 3 m/s 750 mmHg 70%
09:00 +16°C° 0 mm 3 m/s 750 mmHg 64%
10:00 +17°C° 0 mm 3 m/s 750 mmHg 58%
11:00 +18°C° 0 mm 3 m/s 750 mmHg 54%
12:00 +19°C° 0 mm 2 m/s 750 mmHg 49%
13:00 +21°C° 0 mm 1 m/s 749 mmHg 45%
14:00 +20°C° 0 mm 1 m/s 749 mmHg 48%
15:00 +20°C° 0 mm 1 m/s 749 mmHg 51%
16:00 +20°C° 0 mm 1 m/s 748 mmHg 53%
17:00 +19°C° 0 mm 1 m/s 748 mmHg 55%
18:00 +16°C° 0 mm 0 m/s 748 mmHg 57%
19:00 +16°C° 0 mm 0 m/s 748 mmHg 59%
20:00 +16°C° 0.2 mm 1 m/s 748 mmHg 64%
21:00 +15°C° 0.2 mm 2 m/s 749 mmHg 69%
22:00 +14°C° 0.2 mm 3 m/s 749 mmHg 74%
23:00 +13°C° 0.7 mm 3 m/s 749 mmHg 78%
Arată mai mult

We Need Your Consent

Meteoprog and our Service Providers may store and access personal data such as cookies, device identifiers or other similar technologies on your device and process such data to personalise content and ads, as well as provide social media features and to analyse the traffic.

  • Store and/or access information on your device

    Cookies, device identifiers or other information can be stored or accessed on your device for the purposes indicated above.

  • Personalised ads and content, ad and content measurement, audience insights, and products development

    Ads and content can be personalised based on a profile. More data can be added to better personalise ads and content. Ad and content performance can be measured. Insights about the audience who saw the ads and content can be derived. Such data can be used to develop or improve user’s experience, systems and software.

By clicking ‘I Agree’ you will allow the use of indicated cookies, device identifiers, web beacons or other similar technologies. Your settings can be changed in the browser on your device.

For certain purposes, legitimate interests may be relied on, rather than consent. You can read more about this in our Privacy and Cookie Policy.